[[{"header":{"parameterUnit":"m.s-1","parameterCategory":1,"la1":30.2991,"la2":30.254,"lo1":-89.0895,"lo2":-89.0444,"dy":0.0017,"dx":0.0017,"nx":28,"ny":28,"refTime":"2025-06-13T09:00:00:Z","depth":0,"parameterNumber":2,"parameterNumberName":"U-component_of_WINDS"},"data":[0,0,0,0,0,0,0,0,0,0,0,0,0,0,0,0,0,0,0,0,0,0,0,0,0,0,0,0,0,0,0,0,0,0,0,0,0,0,0,0,0,0,0,0,0,0,0,0,0,0,0,0,0,0,0,0,0,0,1.6425,1.6424,0,1.6362,1.6361,1.636,1.6246,1.6244,1.6241,1.6239,1.6177,1.6177,1.6177,0,0,0,0,0,0,0,0,0,0,0,0,0,1.6447,1.6447,1.6425,1.6424,1.6424,1.6362,1.6361,1.636,1.6246,1.6244,1.6241,1.6238,1.6176,1.6177,1.6177,0,0,0,0,0,0,0,0,0,0,0,0,0,1.6416,1.6448,1.6425,1.6359,1.6353,1.6362,1.6361,1.636,1.6247,1.6243,1.624,1.6237,1.6176,1.6177,1.6177,1.6247,0,0,1.6179,1.6179,0,0,0,0,0,0,0,0,1.6418,1.6416,1.637,1.6364,1.6356,1.6308,1.6346,1.6322,1.6248,1.6287,1.6239,1.6236,1.6223,1.622,1.6215,1.6244,1.6241,1.6179,1.6179,1.618,1.618,0,0,0,0,0,0,0,1.6421,1.6418,1.64,1.6369,1.6361,1.6333,1.6325,1.6341,1.6274,1.6283,1.6275,1.6269,1.6219,1.6215,1.6213,1.624,1.6179,1.618,1.618,1.618,1.6319,1.6322,0,0,0,0,0,0,1.6432,1.642,1.6402,1.6398,1.638,1.6335,1.6326,1.6327,1.6274,1.6263,1.6272,1.6264,1.6216,1.6212,1.621,1.6284,1.618,1.618,1.6181,1.6316,1.632,1.6323,0,0,0,0,0,0,1.6433,1.6432,1.6405,1.6407,1.6401,1.6338,1.634,1.6328,1.6323,1.6265,1.6253,1.628,1.6213,1.6209,1.6237,1.6281,1.618,1.6181,1.6312,1.6317,1.6321,1.6437,0,0,0,0,0,0,1.6434,1.6433,1.6459,1.6408,1.6402,1.6433,1.6343,1.6329,1.6324,1.6313,1.6269,1.6259,1.621,1.6237,1.6238,1.628,1.6181,1.6307,1.6314,1.632,1.6429,1.6445,1.6459,0,0,0,0,0,1.6435,1.6495,1.646,1.6459,1.6432,1.6436,1.6432,1.6374,1.6328,1.6353,1.6316,1.626,1.6277,1.6241,1.6241,1.6284,1.6304,1.6312,1.6319,1.6422,1.6442,1.6459,0,0,0,0,0,0,1.6553,1.6487,1.6448,1.6493,1.6471,1.6417,1.6446,1.6398,1.6389,1.6379,1.6308,1.6299,1.6336,1.6313,1.6274,1.6346,1.6282,1.629,1.6359,1.6378,1.6393,1.6396,1.6182,0,0,0,0,0,1.6584,1.6592,1.6534,1.6579,1.657,1.6511,1.651,1.6467,1.6442,1.6432,1.6396,1.6374,1.6373,1.6375,1.6372,1.6426,1.6413,1.6455,1.647,1.6483,1.6489,1.6513,1.653,1.6348,1.6348,1.6348,0,0,1.6648,1.6613,1.6623,1.6602,1.6579,1.6589,1.6504,1.6518,1.6524,1.6434,1.6457,1.6431,1.6401,1.6441,1.6458,1.6423,1.6537,1.6492,1.6503,1.6502,1.6522,1.654,1.6555,1.6353,1.6352,1.6351,0,0,1.6769,1.6745,1.6777,1.6756,1.6723,1.6683,1.6691,1.6644,1.6622,1.6645,1.6577,1.6583,1.6585,1.6566,1.6556,1.6668,1.6616,1.667,1.6748,1.6771,1.6786,1.6798,1.6835,1.6849,1.6677,1.6677,1.6678,0,1.6852,1.6863,1.6801,1.6818,1.681,1.6729,1.676,1.6744,1.6712,1.6708,1.6671,1.6669,1.6644,1.6677,1.6704,1.67,1.6706,1.6673,1.6789,1.68,1.6811,1.6845,1.686,1.6684,1.6683,1.6682,1.6682,0,1.6966,1.6975,1.7006,1.6975,1.6971,1.6996,1.6937,1.694,1.6897,1.6861,1.6884,1.685,1.6837,1.6843,1.6802,1.6869,1.6849,1.6802,1.6734,1.6836,1.6866,1.6879,1.6693,1.6691,1.6689,1.6687,0,0,1.7158,1.7091,1.7103,1.7087,1.7044,1.705,1.7071,1.7057,1.706,1.7041,1.7055,1.7058,1.7013,1.7002,1.6959,1.6981,1.7067,1.693,1.6928,1.6954,1.7135,1.7169,1.7185,1.7033,1.7036,1.7038,1.7137,0,1.7267,1.7297,1.7241,1.7285,1.7291,1.7213,1.7231,1.7207,1.7174,1.7174,1.7137,1.7139,1.7081,1.7073,1.7091,1.7053,1.7102,1.7046,1.7044,1.7045,1.7051,1.7202,1.7238,1.7333,1.7149,1.7151,1.7152,0,1.7398,1.7383,1.7427,1.7379,1.7379,1.7397,1.7378,1.738,1.735,1.7324,1.7312,1.726,1.7276,1.7214,1.7234,1.7197,1.7193,1.7175,1.7177,1.7172,1.7103,1.7198,1.7363,1.7376,1.7171,1.717,1.7169,0,1.7528,1.752,1.7544,1.7534,1.748,1.7493,1.7471,1.7438,1.7432,1.7417,1.7412,1.74,1.7392,1.7384,1.733,1.729,1.7356,1.7289,1.7333,1.7334,1.7348,1.7347,1.7511,1.7352,1.7351,1.7351,1.7351,0,1.7654,1.7683,1.7602,1.7617,1.7647,1.7582,1.7613,1.7584,1.7555,1.7562,1.7496,1.7504,1.7434,1.7434,1.7393,1.7414,1.7412,1.7391,1.7378,1.7395,1.7397,1.7389,1.738,1.7355,1.7354,1.7353,1.7353,0,1.7803,1.7751,1.7772,1.7718,1.7705,1.773,1.7683,1.7695,1.7657,1.7667,1.7666,1.7607,1.7604,1.7549,1.7536,1.7507,1.7544,1.7522,1.7554,1.7545,1.7591,1.7586,1.7752,1.7769,1.7603,1.7605,1.7606,0,1.7885,1.7905,1.7854,1.7853,1.7834,1.7835,1.7828,1.7765,1.7761,1.7728,1.7743,1.7734,1.7723,1.7722,1.7678,1.7666,1.7641,1.77,1.7638,1.7653,1.7637,1.7635,1.7636,1.7712,1.7714,1.7716,1.7717,0,1.8034,1.8007,1.8,1.7983,1.7977,1.7962,1.7942,1.7946,1.7877,1.7876,1.7871,1.7862,1.7847,1.7838,1.7818,1.7795,1.7744,1.7737,1.7746,1.7761,1.7777,1.7766,1.7586,1.7733,1.7731,1.773,1.7729,1.7729,1.815,1.8163,1.8128,1.8121,1.81,1.8083,1.8089,1.8052,1.8047,1.8028,1.7993,1.7993,1.7961,1.7929,1.791,1.7909,1.7879,1.7893,1.7895,1.7899,1.7906,1.778,1.7906,1.7906,1.7905,1.7905,1.7904,0,1.8292,1.8266,1.8261,1.8234,1.8229,1.8182,1.8157,1.8156,1.8157,1.8131,1.8122,1.8115,1.8106,1.8062,1.8048,1.8055,1.8031,1.8053,1.8051,1.8045,1.7936,1.7928,1.8073,1.8073,1.8073,1.8073,1.8073,1.8073,1.8365,1.8384,1.8353,1.836,1.8333,1.8332,1.8321,1.8305,1.8283,1.8279,1.8271,1.8242,1.8208,1.8191,1.818,1.8167,1.8163,1.8193,1.8172,1.807,1.8054,1.8038,1.803,1.8194,1.8194,1.8281,1.8282,1.8282]},{"header":{"parameterUnit":"m.s-1","parameterCategory":1,"la1":30.2991,"la2":30.254,"lo1":-89.0895,"lo2":-89.0444,"dy":0.0017,"dx":0.0017,"nx":28,"ny":28,"refTime":"2025-06-13T09:00:00:Z","depth":0,"parameterNumber":3,"parameterNumberName":"V-component_of_WINDS"},"data":[0,0,0,0,0,0,0,0,0,0,0,0,0,0,0,0,0,0,0,0,0,0,0,0,0,0,0,0,0,0,0,0,0,0,0,0,0,0,0,0,0,0,0,0,0,0,0,0,0,0,0,0,0,0,0,0,0,0,3.0884,3.0884,0,3.0925,3.0926,3.0926,3.0876,3.0874,3.0872,3.087,3.0909,3.0912,3.0915,0,0,0,0,0,0,0,0,0,0,0,0,0,3.0757,3.076,3.0884,3.0884,3.0885,3.0925,3.0926,3.0926,3.0876,3.0874,3.0872,3.0869,3.0909,3.0912,3.0915,0,0,0,0,0,0,0,0,0,0,0,0,0,3.0807,3.0761,3.0884,3.0865,3.0863,3.0925,3.0926,3.0926,3.0877,3.0874,3.0871,3.0868,3.0907,3.0912,3.0916,3.0997,0,0,3.0928,3.093,0,0,0,0,0,0,0,0,3.0804,3.0811,3.0867,3.0866,3.0865,3.0892,3.0895,3.095,3.0877,3.0871,3.087,3.0867,3.0906,3.091,3.0924,3.0998,3.1,3.0929,3.0931,3.0933,3.0934,0,0,0,0,0,0,0,3.08,3.0809,3.09,3.0868,3.0866,3.0853,3.0857,3.0905,3.0904,3.0872,3.0868,3.0874,3.0905,3.092,3.0924,3.1001,3.0929,3.0932,3.0935,3.0936,3.1142,3.1144,0,0,0,0,0,0,3.08,3.0807,3.0899,3.0901,3.0827,3.0857,3.0862,3.0886,3.0903,3.0903,3.0876,3.0871,3.0914,3.0919,3.0925,3.102,3.0933,3.0937,3.0939,3.1139,3.1142,3.1145,0,0,0,0,0,0,3.0797,3.0808,3.0897,3.0853,3.0863,3.0862,3.089,3.0889,3.0904,3.0906,3.0905,3.0892,3.0912,3.092,3.0979,3.102,3.0939,3.0942,3.1135,3.114,3.1144,3.121,0,0,0,0,0,0,3.0794,3.0808,3.084,3.0854,3.0866,3.0951,3.0893,3.0891,3.0911,3.0905,3.0921,3.0921,3.0911,3.0973,3.0983,3.1025,3.0946,3.1131,3.1137,3.1142,3.1204,3.1216,3.1226,0,0,0,0,0,3.0789,3.0857,3.0842,3.0853,3.0906,3.0954,3.096,3.0948,3.0915,3.0946,3.0947,3.0921,3.1015,3.098,3.099,3.1034,3.1129,3.1135,3.1142,3.1199,3.1214,3.1226,0,0,0,0,0,0,3.0846,3.0858,3.0842,3.0916,3.0934,3.0945,3.0984,3.0964,3.0991,3.0985,3.0967,3.0971,3.1034,3.104,3.1001,3.1112,3.1066,3.1075,3.1106,3.112,3.1131,3.1127,3.0949,0,0,0,0,0,3.0868,3.0907,3.0915,3.0979,3.0989,3.0985,3.1006,3.0994,3.1012,3.102,3.1025,3.1043,3.1076,3.1098,3.1129,3.1205,3.1206,3.124,3.1251,3.126,3.1268,3.1306,3.1321,3.1167,3.1167,3.1167,0,0,3.0911,3.0923,3.0949,3.0991,3.1004,3.1043,3.0992,3.1036,3.1065,3.1026,3.1082,3.1087,3.1105,3.1173,3.1203,3.118,3.1311,3.1269,3.1276,3.1279,3.1315,3.1329,3.1342,3.1172,3.1171,3.117,0,0,3.1011,3.1025,3.1079,3.1093,3.1114,3.1111,3.1124,3.1138,3.114,3.1196,3.1167,3.12,3.1258,3.1272,3.1287,3.1391,3.1366,3.1401,3.1459,3.1497,3.1509,3.1519,3.1555,3.1568,3.1409,3.1409,3.1409,0,3.1063,3.1123,3.1109,3.1155,3.1174,3.1141,3.1195,3.1209,3.1238,3.1251,3.1225,3.1296,3.1306,3.1375,3.1401,3.1414,3.1427,3.1399,3.1508,3.1519,3.1528,3.1562,3.1575,3.1413,3.1413,3.1412,3.1412,0,3.1184,3.1226,3.1267,3.1296,3.1319,3.1369,3.1362,3.1386,3.1373,3.1372,3.1429,3.144,3.1471,3.1487,3.1474,3.1554,3.1539,3.1511,3.1464,3.1547,3.1578,3.1591,3.1419,3.1417,3.1416,3.1415,0,0,3.1321,3.1342,3.1357,3.1369,3.1389,3.142,3.1468,3.1499,3.152,3.1541,3.1579,3.1629,3.1602,3.1619,3.1607,3.1641,3.172,3.1608,3.1608,3.1627,3.1806,3.1826,3.1841,3.1704,3.1707,3.1709,3.1804,0,3.1419,3.1502,3.1491,3.157,3.1607,3.1576,3.1617,3.1633,3.1633,3.1663,3.1663,3.1698,3.1662,3.1671,3.1703,3.1704,3.1755,3.1697,3.1738,3.1739,3.1733,3.1858,3.1879,3.1968,3.1816,3.1818,3.182,0,3.1546,3.1572,3.1655,3.1667,3.1682,3.172,3.1747,3.1777,3.1793,3.1791,3.1809,3.1791,3.1836,3.179,3.1851,3.1812,3.1828,3.183,3.1834,3.1836,3.1784,3.1861,3.1997,3.201,3.1839,3.1838,3.1836,0,3.1634,3.169,3.1747,3.1758,3.1775,3.1801,3.1809,3.1823,3.1843,3.1866,3.1878,3.1907,3.1922,3.1943,3.1933,3.19,3.1995,3.1949,3.1993,3.1993,3.2013,3.2012,3.2152,3.2027,3.2027,3.2026,3.2026,0,3.1745,3.1796,3.1787,3.1821,3.1877,3.1863,3.1919,3.1923,3.1935,3.1969,3.1944,3.1975,3.196,3.1991,3.1983,3.2033,3.2041,3.2039,3.2036,3.204,3.204,3.2049,3.2042,3.203,3.2029,3.2028,3.2028,0,3.1853,3.1849,3.1908,3.1919,3.1923,3.1964,3.1972,3.2004,3.2002,3.2044,3.2053,3.205,3.2084,3.2076,3.2114,3.2108,3.2172,3.2162,3.2167,3.2163,3.2208,3.2203,3.2357,3.2376,3.224,3.2242,3.2243,0,3.1923,3.1962,3.1977,3.1998,3.2008,3.2043,3.2062,3.205,3.2071,3.2092,3.212,3.2152,3.2177,3.2233,3.2233,3.2261,3.225,3.2302,3.2254,3.2257,3.2249,3.2246,3.2249,3.2311,3.2313,3.2314,3.2315,0,3.2047,3.2043,3.2073,3.2102,3.2126,3.2148,3.2167,3.2185,3.2174,3.2198,3.2233,3.2253,3.2291,3.2322,3.2348,3.2354,3.2332,3.233,3.2342,3.2346,3.2346,3.2345,3.2191,3.2327,3.2325,3.2325,3.2324,3.2324,3.2137,3.217,3.2185,3.2218,3.2232,3.225,3.228,3.2282,3.2311,3.2341,3.2332,3.2371,3.2385,3.2417,3.2427,3.2456,3.2437,3.2454,3.2458,3.2462,3.2467,3.2343,3.2461,3.2461,3.2461,3.246,3.246,0,3.2258,3.2267,3.2298,3.2326,3.2351,3.233,3.235,3.2372,3.2408,3.2423,3.2448,3.2487,3.2517,3.252,3.2548,3.2571,3.2561,3.2578,3.2576,3.2577,3.2484,3.247,3.2586,3.2586,3.2585,3.2585,3.2585,3.2585,3.2324,3.2378,3.2375,3.2434,3.2441,3.248,3.2493,3.2509,3.2521,3.2567,3.2592,3.2594,3.2603,3.2631,3.2658,3.2657,3.2668,3.2689,3.2685,3.2597,3.2584,3.2572,3.2559,3.2692,3.2692,3.2776,3.2776,3.2777]}]]